Leadville, CO

12:48 AM MST on December 15, 2017 (GMT -0700)
Lake County

Weather History for KLXV - April, 2013

Change the Weather History Date:

Thursday, April 18, 2013

  Actual Average Record
Temperature  
Mean Temperature 10 °F -  
Max Temperature 19 °F 44 °F 58 °F (2017)
Min Temperature 1 °F 19 °F 1 °F (2013)
Degree Days  
Heating Degree Days 55 33  
Month to date heating degree days 695 642  
Since 1 July heating degree days 9547 9625  
Cooling Degree Days 0 0  
Month to date cooling degree days 0 0  
Year to date cooling degree days 0 0  
Moisture  
Dew Point -1 °F    
Average Humidity 63    
Maximum Humidity 87    
Minimum Humidity 39    
Precipitation  
Precipitation T in 0.04 in 0.31 in (2016)
Month to date precipitation 2.00 0.65  
Year to date precipitation 5.13 2.91  
Sea Level Pressure  
Sea Level Pressure 30.02 in    
Wind  
Wind Speed 13 mph (NNW)    
Max Wind Speed 30 mph    
Max Gust Speed 43 mph    
Visibility 10 miles    
Events Snow    
T = Trace of Precipitation, MM = Missing Value Source: NWS Daily Summary

Daily Weather History Graph

Daily Weather History Graph

Search for Another Location

Airport or City:

Trip Planner

Search our weather history database for the weather conditions in past years. The results will help you decide how hot, cold, wet, or windy it might be!

Date:

Astronomy

Apr. 18, 2013 Rise Set
Actual Time 6:23 AM MDT 7:46 PM MDT
Civil Twilight 5:55 AM MDT 8:14 PM MDT
Nautical Twilight 5:22 AM MDT 8:47 PM MDT
Astronomical Twilight 4:47 AM MDT 9:22 PM MDT
Moon 12:38 PM MDT (4/18) 2:01 AM MDT (4/18)
Length of Visible Light 14h 18m
Length of Day
13h 22m
First Quarter, 52% of the Moon is Illuminated
Apr 18
First Quarter
Apr 25
Full
May 2
Last Quarter
May 9
New
May 17
First Quarter

Hourly Weather History & Observations

Time (MDT) Temp. Windchill Dew Point Humidity Pressure Visibility Wind Dir Wind Speed Gust Speed Precip Events Conditions
12:53 AM 9.0 °F -2.2 °F 1.9 °F 73% 29.84 in 10.0 mi NNW 6.9 mph - N/A   Overcast
1:53 AM 8.1 °F -3.2 °F 1.9 °F 76% 29.90 in 8.0 mi North 6.9 mph - N/A   Overcast
2:36 AM 6.8 °F -4.8 °F 1.4 °F 79% 29.88 in 9.0 mi NNW 6.9 mph - N/A   Overcast
2:53 AM 6.1 °F -5.6 °F 1.0 °F 80% 29.91 in 10.0 mi NW 6.9 mph - N/A   Overcast
3:53 AM 3.9 °F -6.9 °F -0.9 °F 80% 29.92 in 10.0 mi NNW 5.8 mph - N/A   Overcast
4:14 AM 3.2 °F -7.8 °F -0.4 °F 85% 29.87 in 10.0 mi NNW 5.8 mph - N/A   Scattered Clouds
4:35 AM 3.2 °F -7.8 °F -2.2 °F 78% 29.87 in 10.0 mi NNW 5.8 mph - N/A   Mostly Cloudy
4:53 AM 1.9 °F -7.6 °F -2.9 °F 80% 29.93 in 10.0 mi NNW 4.6 mph - N/A   Overcast
5:36 AM 1.4 °F -11.3 °F -2.2 °F 85% 29.88 in 10.0 mi North 6.9 mph - N/A   Overcast
5:53 AM 1.9 °F -9.2 °F -2.9 °F 80% 29.93 in 10.0 mi NNW 5.8 mph - N/A   Mostly Cloudy
6:49 AM 1.4 °F -9.9 °F -4.0 °F 78% 29.89 in 10.0 mi NW 5.8 mph - N/A   Scattered Clouds
6:53 AM 1.0 °F -10.3 °F -4.0 °F 79% 29.98 in 10.0 mi NW 5.8 mph - N/A   Partly Cloudy
7:53 AM 6.1 °F -10.9 °F -4.0 °F 63% 29.97 in 10.0 mi North 13.8 mph 21.9 mph N/A   Clear
8:17 AM 6.8 °F -12.4 °F -2.2 °F 67% 29.92 in 10.0 mi North 18.4 mph 27.6 mph N/A   Mostly Cloudy
8:53 AM 8.1 °F -10.7 °F -2.0 °F 64% 30.00 in 10.0 mi North 18.4 mph 25.3 mph N/A   Overcast
9:16 AM 8.6 °F -8.9 °F -4.0 °F 57% 29.92 in 10.0 mi North 16.1 mph 28.8 mph N/A   Overcast
9:53 AM 10.9 °F -5.9 °F -2.0 °F 56% 29.99 in 10.0 mi North 16.1 mph 24.2 mph N/A   Overcast
10:53 AM 10.9 °F -9.6 °F -2.9 °F 54% 30.03 in 8.0 mi North 25.3 mph 34.5 mph 0.00 in   Overcast
11:53 AM 12.0 °F -6.0 °F -0.9 °F 56% 30.04 in 9.0 mi NNW 19.6 mph 27.6 mph 0.00 in   Overcast
12:53 PM 14.0 °F -3.0 °F -5.1 °F 43% 30.03 in 10.0 mi North 18.4 mph 27.6 mph N/A   Mostly Cloudy
1:53 PM 17.1 °F 2.5 °F -2.9 °F 41% 30.02 in 10.0 mi NNW 15.0 mph 29.9 mph N/A   Overcast
2:53 PM 18.0 °F 0.6 °F -4.0 °F 38% 30.06 in 10.0 mi NNW 23.0 mph 35.7 mph N/A   Overcast
3:53 PM 17.1 °F 1.5 °F 1.9 °F 52% 30.08 in 10.0 mi WNW 17.3 mph 28.8 mph N/A   Mostly Cloudy
4:53 PM 17.1 °F 2.0 °F 3.9 °F 56% 30.12 in 10.0 mi NW 16.1 mph 25.3 mph 0.00 in   Overcast
5:33 PM 15.8 °F 3.4 °F 5.0 °F 62% 30.05 in 6.0 mi WNW 10.4 mph - 0.00 in Snow Light Snow
5:53 PM 17.1 °F 3.6 °F 1.9 °F 52% 30.16 in 10.0 mi NNW 12.7 mph 24.2 mph 0.00 in   Mostly Cloudy
6:53 PM 14.0 °F -1.4 °F 1.0 °F 56% 30.21 in 10.0 mi North 15.0 mph 21.9 mph N/A   Mostly Cloudy
7:53 PM 10.9 °F -4.1 °F -0.9 °F 59% 30.23 in 10.0 mi North 12.7 mph - N/A   Mostly Cloudy
8:53 PM 9.0 °F -7.3 °F -2.0 °F 61% 30.26 in 10.0 mi North 13.8 mph 20.7 mph N/A   Clear
9:53 PM 6.1 °F -5.6 °F -2.9 °F 67% 30.28 in 10.0 mi NNW 6.9 mph - N/A   Clear
10:53 PM 3.9 °F -8.2 °F -2.9 °F 73% 30.30 in 10.0 mi North 6.9 mph - N/A   Overcast
11:53 PM 7.0 °F -4.5 °F -0.9 °F 70% 30.28 in 10.0 mi NNW 6.9 mph - N/A   Overcast